TimeEDT,TemperatureF,Dew PointF,Humidity,Sea Level PressureIn,VisibilityMPH,Wind Direction,Wind SpeedMPH,Gust SpeedMPH,PrecipitationIn,Events,Conditions,WindDirDegrees,DateUTC
12:54 AM,34.0,18.0,52,29.91,10.0,NW,8.1,-,N/A,,Partly Cloudy,320,2013-04-11 04:54:00
1:54 AM,33.1,18.0,54,29.91,10.0,NNW,11.5,-,N/A,,Overcast,330,2013-04-11 05:54:00
2:54 AM,32.0,18.0,56,29.89,10.0,NNW,13.8,20.7,N/A,,Overcast,340,2013-04-11 06:54:00
3:54 AM,30.0,14.0,51,29.94,10.0,NNW,16.1,24.2,N/A,,Overcast,330,2013-04-11 07:54:00
4:54 AM,28.0,10.9,49,29.94,10.0,NNW,16.1,24.2,N/A,,Scattered Clouds,330,2013-04-11 08:54:00
5:54 AM,27.0,10.0,49,29.96,10.0,NNW,11.5,-,N/A,,Clear,340,2013-04-11 09:54:00
6:54 AM,27.0,8.1,45,29.98,10.0,NW,13.8,21.9,N/A,,Clear,320,2013-04-11 10:54:00
7:54 AM,27.0,8.1,45,30.00,10.0,NNW,18.4,27.6,N/A,,Clear,340,2013-04-11 11:54:00
8:54 AM,28.9,9.0,43,29.99,10.0,NNW,17.3,26.5,N/A,,Clear,340,2013-04-11 12:54:00
9:54 AM,30.0,10.0,43,30.00,10.0,NNW,18.4,29.9,N/A,,Clear,340,2013-04-11 13:54:00
10:54 AM,30.9,12.0,46,30.01,10.0,NW,20.7,28.8,N/A,,Clear,320,2013-04-11 14:54:00
11:54 AM,32.0,12.0,44,30.02,10.0,NW,19.6,27.6,N/A,,Clear,320,2013-04-11 15:54:00
1:54 PM,34.0,12.0,40,30.03,10.0,NW,18.4,28.8,N/A,,Clear,310,2013-04-11 17:54:00
2:54 PM,36.0,14.0,41,30.04,10.0,NNW,16.1,26.5,N/A,,Clear,340,2013-04-11 18:54:00
3:54 PM,36.0,12.9,39,30.04,10.0,NNW,16.1,21.9,N/A,,Clear,330,2013-04-11 19:54:00
4:54 PM,35.1,14.0,42,30.05,10.0,NW,17.3,24.2,N/A,,Clear,320,2013-04-11 20:54:00
5:54 PM,34.0,12.9,42,30.08,10.0,NNW,16.1,23.0,N/A,,Clear,330,2013-04-11 21:54:00
6:54 PM,32.0,14.0,48,30.11,10.0,NNW,16.1,20.7,N/A,,Clear,330,2013-04-11 22:54:00
7:54 PM,30.9,14.0,50,30.13,10.0,NW,8.1,-,N/A,,Clear,310,2013-04-11 23:54:00
8:54 PM,30.9,15.1,52,30.16,10.0,NNW,10.4,-,N/A,,Clear,330,2013-04-12 00:54:00
9:54 PM,30.0,14.0,51,30.17,10.0,NW,5.8,-,N/A,,Clear,310,2013-04-12 01:54:00
10:54 PM,28.9,14.0,54,30.19,10.0,WNW,6.9,-,N/A,,Clear,300,2013-04-12 02:54:00
11:54 PM,28.0,14.0,56,30.20,10.0,WNW,8.1,-,N/A,,Clear,300,2013-04-12 03:54:00